Location: *
(50.9167°S, 179.4000°W)
Time: 03:56:41
(UTC+00:00)

ATLAS 2AS CENTAUR R/B - Pass Details

Date: 18 June 2024
Orbit: 1019 x 1192 km, 63.7° (Epoch: 21 July)

Event Time Altitude Azimuth Distance (km) Brightness Sun altitude
Exits shadow 17:20:38 25° 207° (SSW) 2,113 3.9 -23.9°
Maximum altitude 17:23:03 30° 175° (S) 1,923 4.0 -23.5°
Drops below altitude 10° 17:29:24 10° 115° (ESE) 3,085 5.8 -22.5°
Sets 17:32:36 0° 104° (ESE) 4,067 6.8 -22.0°
